User: anonymous   Login
Location: Clinton NY
(43.0598°N, 75.3602°W)
Time: 18:22:01
(UTC-04:00)
Language:

Iridium 42 - Orbit

View from above orbital plane
View from above orbital plane
View from above satellite
View from above satellite

Ground track
Ground track

The orbit data is extracted from the following two-line orbital elements,

1 25077U 97077A   15184.46962987  .00000108  00000-0  31308-4 0  9999
2 25077 086.3975 320.7126 0002316 090.5192 269.6270 14.34389136919733
Epoch (UTC): 03 July 2015 11:16:16
Eccentricity: 0.0002316
inclination: 86.3975°
perigee height: 775 km
apogee height: 779 km
right ascension of ascending node: 320.7126°
argument of perigee: 90.5192°
revolutions per day: 14.34389136
mean anomaly at epoch: 269.6270°
orbit number at epoch: 91973

The dashed part of the orbit path shows where the satellite is in the earth's shadow,  

DLR